Location: Marcé
(47.5801°N, 0.3280°W)
Time: 09:01:24
(UTC+01:00)

Vanguard 3 - Pass Details

Date: 11 December 2021
Orbit: 508 x 3260 km, 33.3° (Epoch: 24 January)

Event Time Altitude Azimuth Distance (km) Brightness Sun altitude
Rises 05:17:15 0° 258° (WSW) 6,789 - -33.0°
Reaches altitude 10° 05:21:42 10° 253° (WSW) 5,973 - -32.2°
Exits shadow 05:30:41 33° 237° (WSW) 4,530 10.4 -30.7°
Maximum altitude 05:40:03 51° 186° (S) 3,748 10.3 -29.1°
Drops below altitude 10° 05:56:13 10° 118° (ESE) 5,315 12.1 -26.4°
Sets 05:59:54 0° 113° (ESE) 6,026 12.8 -25.8°
